This is the latest recevied weather packets stored in our database for station/object SP4MAZ-13. If no packets are shown the sender has not sent any weather packets the latest 10 day(s).
| Time | Temp. | Humidity | Pressure | Rain* | Wind** | Luminosity | Snow |
|---|---|---|---|---|---|---|---|
| 1777896506 | 25.56° C | 30% | 2147.4 hPa | - | - | - | - |
| 1777896203 | 25.56° C | 28% | 2147.4 hPa | - | - | - | - |
| 1777895899 | 26.11° C | 28% | 2147.4 hPa | - | - | - | - |
| 1777895596 | 26.11° C | 29% | 2147.4 hPa | - | - | - | - |
| 1777895293 | 26.67° C | 29% | 2147.4 hPa | - | - | - | - |
| 1777894688 | 26.11° C | 27% | 2147.4 hPa | - | - | - | - |
| 1777894385 | 26.11° C | 28% | 2147.4 hPa | - | - | - | - |
| 1777894081 | 26.67° C | 28% | 2147.4 hPa | - | - | - | - |
| 1777893777 | 26.67° C | 28% | 2147.4 hPa | - | - | - | - |
| 1777893474 | 27.22° C | 24% | 2147.4 hPa | - | - | - | - |
| 1777893173 | 27.22° C | 26% | 2147.4 hPa | - | - | - | - |
| 1777892869 | 27.22° C | 26% | 2147.4 hPa | - | - | - | - |
| 1777892565 | 27.22° C | 25% | 2147.4 hPa | - | - | - | - |
| 1777892262 | 27.78° C | 26% | 2147.4 hPa | - | - | - | - |
| 1777891655 | 27.78° C | 25% | 2147.4 hPa | - | - | - | - |
| 1777890745 | 26.67° C | 25% | 2147.4 hPa | - | - | - | - |
| 1777890444 | 27.22° C | 27% | 2147.4 hPa | - | - | - | - |
| 1777890143 | 27.22° C | 25% | 2147.4 hPa | - | - | - | - |
| 1777889839 | 27.22° C | 26% | 2147.4 hPa | - | - | - | - |
| 1777889536 | 27.22° C | 27% | 2147.4 hPa | - | - | - | - |
| 1777889232 | 26.67° C | 28% | 2147.4 hPa | - | - | - | - |
| 1777888626 | 26.67° C | 27% | 2147.4 hPa | - | - | - | - |
| 1777887414 | 26.67° C | 29% | 2147.4 hPa | - | - | - | - |
| 1777887111 | 26.67° C | 27% | 2147.4 hPa | - | - | - | - |
| 1777886809 | 26.67° C | 29% | 2147.4 hPa | - | - | - | - |
* Rain since midnight (hover to see other rain measurements)
** Current wind speed in m/s (hover to see current wind gust speed)